Overview Statistics Trail Chart Weather Telemetry Raw packets
 

This is the latest recevied weather packets stored in our database for station/object K3RUP-1. If no packets are shown the sender has not sent any weather packets the latest 10 day(s).

<< 5 6 7 8 9 10 11 >>
Time Temp. Humidity Pressure Rain* Wind** Luminosity Snow
1788657924 21.67° C 82% 1011.5 hPa 0 mm - 0 W/m² -
1788657623 21.67° C 81% 1011.3 hPa 0 mm - 0 W/m² -
1788657320 21.67° C 81% 1011.4 hPa 0 mm - 0 W/m² -
1788657019 21.67° C 80% 1011.1 hPa 0 mm - 0 W/m² -
1788656715 22.22° C 80% 1011.3 hPa 0 mm - 0 W/m² -
1788656411 22.22° C 79% 1011 hPa 0 mm - 0 W/m² -
1788656110 22.22° C 78% 1011.1 hPa 0 mm - 0 W/m² -
1788655809 22.22° C 80% 1011.3 hPa 0 mm - 0 W/m² -
1788655503 22.78° C 82% 1011.1 hPa 0 mm - 0 W/m² -
1788655198 22.78° C 78% 1011.1 hPa 0 mm - 0 W/m² -
1788654893 22.78° C 76% 1010.9 hPa 0 mm - 0 W/m² -
1788654589 22.78° C 75% 1010.8 hPa 0 mm - 0 W/m² -
1788654289 23.33° C 76% 1011.2 hPa 0 mm - 0 W/m² -
1788653984 23.33° C 76% 1010.9 hPa 0 mm - 0 W/m² -
1788653679 23.33° C 78% 1010.6 hPa 0 mm - 0 W/m² -
1788653368 23.89° C 79% 1010.8 hPa 0 mm - 0 W/m² -
1788653064 24.44° C 78% 1011 hPa 0 mm - 0 W/m² -
1788652753 23.89° C 73% 1010.7 hPa 0 mm - 0 W/m² -
1788652453 23.89° C 73% 1010.5 hPa 0 mm - 0 W/m² -
1788652148 23.89° C 73% 1010.6 hPa 0 mm - 0 W/m² -
1788651843 23.89° C 77% 1010.4 hPa 0 mm - 0 W/m² -
1788651538 25° C 78% 1010.5 hPa 0 mm - 0 W/m² -
1788651233 24.44° C 77% 1010.4 hPa 0 mm - 0 W/m² -
1788650932 24.44° C 78% 1010.4 hPa 0 mm - 0 W/m² -
1788650629 24.44° C 81% 1010.2 hPa 0 mm - 2 W/m² -

* Rain latest hour (hover to see other rain measurements)
** Current wind speed in m/s (hover to see current wind gust speed)